User: anonymous   Login
Location: Unspecified
(0.0000°N, 0.0000°E)
Time: 01:05:34
(UTC+00:00)
Language:

O3B FM8 - Orbit

View from above orbital plane
View from above orbital plane
View from above satellite
View from above satellite

Ground track
Ground track

The orbit is defined by the following mean orbital elements,

1 40079U          26145.31830731 +.00000000 +00000-0 +00000-0 0 00007
2 40079   0.0494 354.6089 0001904 130.8686 234.5398  5.00115672    01
Epoch (UTC): 25 May 2026 07:38:21
Eccentricity: 0.0001904
inclination: 0.0494°
perigee height: 8063 km
apogee height: 8069 km
right ascension of ascending node: 354.6089°
argument of perigee: 130.8686°
revolutions per day: 5.00115672
mean anomaly at epoch: 234.5398°

The dashed part of the orbit path shows where the satellite is in the earth's shadow,  

DLR